Location: Rochester
(43.1610°N, 77.6109°W)
Time: 14:30:57
(UTC-04:00)

CAS-4A - Visible Passes

Search period start: 22 October 2021 00:00
Search period end: 01 November 2021 00:00
Orbit: 528 x 541 km, 43.0° (Epoch: 22 October)

Date Brightness Start Highest point End Pass type
(mag) Time Alt. Az. Time Alt. Az. Time Alt. Az.
22 Oct ? 19:37:00 10° W 19:41:06 68° SSW 19:43:01 30° ESE visible
22 Oct ? 21:17:30 10° W 21:18:19 14° WSW 21:18:19 14° WSW visible
23 Oct ? 19:26:00 10° W 19:30:04 61° SSW 19:32:38 21° ESE visible
23 Oct ? 21:06:42 10° W 21:07:57 15° WSW 21:07:57 15° WSW visible
24 Oct ? 19:15:01 10° W 19:19:02 53° SSW 19:22:21 14° SE visible
24 Oct ? 20:56:00 10° WSW 20:57:40 15° SW 20:57:40 15° SW visible
25 Oct ? 19:04:01 10° W 19:07:58 46° SSW 19:11:55 10° SE visible
25 Oct ? 20:45:29 10° WSW 20:47:26 13° SW 20:47:31 13° SW visible
26 Oct ? 18:53:02 10° W 18:56:54 39° SSW 19:00:45 10° SE visible
26 Oct ? 20:35:42 10° SW 20:36:16 10° SW 20:36:50 10° SSW visible
27 Oct ? 18:42:05 10° W 18:45:49 33° SSW 18:49:32 10° SE visible
28 Oct ? 18:31:09 10° W 18:34:43 28° SSW 18:38:14 10° SSE visible
